EW5447 Weather Reports


Display with metric or nautical units.
time (UTC)temp
F
wind
direction
speed
MPH
gust
MPH
rain 1hr
in
rain 24hr
in
rain mn
in
humidity
%
barometer
mb
20260903194530 59 318 0.0 2.0 0.00 0.74 0.01 78 1012.8
20260903193028 58 205 0.0 3.0 0.00 0.74 0.01 78 1012.9
20260903191525 58 286 0.0 2.0 0.00 0.74 0.01 82 1012.9
20260903190024 58 274 0.0 2.0 0.00 0.74 0.01 83 1013.1
20260903184521 57 263 0.0 1.0 0.00 0.77 0.01 85 1013.1
20260903183021 57 289 0.0 0.0 0.00 0.77 0.01 88 1013.1
20260903181519 57 182 0.0 2.0 0.00 0.77 0.01 89 1013.1
20260903180020 56 297 0.0 1.0 0.00 0.77 0.01 88 1013.1
20260903174516 56 240 1.0 2.0 0.00 0.80 0.01 90 1013.1
20260903173015 56 146 0.0 2.0 0.00 0.80 0.01 90 1013.1
20260903171514 56 115 1.0 4.0 0.00 0.80 0.01 88 1013.0
20260903170013 56 107 1.0 4.0 0.00 0.80 0.01 89 1013.1
20260903164511 55 71 1.0 4.0 0.00 0.85 0.01 91 1013.2
20260903163008 55 134 0.0 2.0 0.00 0.85 0.01 92 1013.5
20260903161506 54 180 0.0 2.0 0.00 0.85 0.01 96 1013.7
20260903160006 53 22 0.0 2.0 0.00 0.85 0.01 96 1013.8
20260903154503 52 292 0.0 2.0 0.00 0.85 0.01 96 1014.0
20260903153125 50 286 0.0 0.0 0.00 0.85 0.01 95 1014.0
20260903151610 50 286 0.0 0.0 0.00 0.85 0.01 95 1013.8
20260903150107 49 219 0.0 0.0 0.01 0.85 0.01 95 1013.7
20260903144555 48 84 0.0 0.0 0.01 0.85 0.01 95 1013.7
20260903143104 48 84 0.0 0.0 0.01 0.85 0.01 95 1013.7
20260903141551 47 85 0.0 0.0 0.01 0.85 0.01 95 1013.6
20260903140050 47 85 0.0 0.0 0.00 0.84 0.00 95 1013.4
20260903134549 47 5 0.0 0.0 0.00 0.84 0.00 94 1013.3
20260903133046 47 310 0.0 0.0 0.00 0.84 0.00 94 1013.2
20260903131545 47 257 0.0 0.0 0.00 0.84 0.00 94 1013.2
20260903130043 47 189 0.0 2.0 0.00 0.84 0.00 94 1013.1
20260903124542 48 355 0.0 0.0 0.00 0.84 0.00 94 1013.2
20260903123042 48 287 0.0 0.0 0.00 0.84 0.00 94 1013.4
20260903121541 47 287 0.0 2.0 0.00 0.84 0.00 94 1013.4
20260903120047 47 355 0.0 0.0 0.00 0.84 0.00 93 1013.4
20260903114538 48 173 0.0 0.0 0.00 0.84 0.00 93 1013.5
20260903113036 48 55 0.0 0.0 0.00 0.84 0.00 93 1013.5
20260903111543 49 355 0.0 0.0 0.00 0.84 0.00 92 1013.5
20260903110032 49 11 0.0 0.0 0.00 0.84 0.00 92 1013.5
20260903104531 50 314 0.0 0.0 0.00 0.84 0.00 91 1013.6
20260903103028 51 321 0.0 0.0 0.00 0.84 0.00 91 1013.7
20260903101528 51 9 0.0 0.0 0.00 0.84 0.00 92 1013.7
20260903100023 52 9 0.0 0.0 0.00 0.84 0.00 91 1013.7
20260903094522 52 21 0.0 0.0 0.00 0.84 0.00 91 1013.6
20260903093031 53 9 0.0 0.0 0.00 0.84 0.00 91 1013.8
20260903091532 53 90 0.0 0.0 0.00 0.84 0.00 91 1013.8
20260903090024 54 140 0.0 1.0 0.00 0.84 0.00 91 1013.9
20260903084537 54 117 0.0 2.0 0.00 0.84 0.00 92 1013.8
20260903083017 53 126 0.0 0.0 0.00 0.84 0.00 92 1013.7
20260903081517 53 162 0.0 1.0 0.00 0.84 0.00 92 1013.7
20260903080015 53 92 0.0 0.0 0.00 0.84 0.00 91 1013.4
20260903074512 53 163 0.0 0.0 0.00 0.84 0.00 91 1013.3
20260903073013 53 163 0.0 0.0 0.00 0.84 0.00 90 1013.3
20260903071510 53 117 0.0 0.0 0.00 0.84 0.00 89 1013.3
20260903070017 53 195 0.0 2.0 0.00 0.84 0.00 88 1013.1
20260903064506 54 221 1.0 2.0 0.00 0.84 0.84 86 1013.1
20260903063006 55 244 1.0 3.0 0.00 0.84 0.84 86 1013.0
20260903061512 55 235 1.0 2.0 0.00 0.84 0.84 84 1012.9
20260903060005 56 252 0.0 4.0 0.01 0.84 0.84 89 1013.1
20260903054509 57 249 1.0 3.0 0.03 0.84 0.84 93 1013.2
20260903053004 57 186 0.0 0.0 0.03 0.84 0.84 94 1013.1
20260903051504 57 174 0.0 0.0 0.03 0.84 0.84 94 1013.0
20260903050010 57 194 0.0 0.0 0.02 0.83 0.83 94 1013.0
20260903044501 57 127 0.0 0.0 0.00 0.82 0.81 94 1012.9
20260903043100 57 127 0.0 0.0 0.00 0.82 0.81 94 1012.8
20260903041559 57 127 0.0 0.0 0.00 0.82 0.81 94 1012.7
20260903040059 57 105 0.0 0.0 0.01 0.82 0.81 94 1012.6
20260903034558 57 90 0.0 0.0 0.01 0.84 0.81 94 1012.2
20260903033102 57 108 0.0 0.0 0.02 0.84 0.81 94 1012.2
20260903031556 57 65 0.0 0.0 0.03 0.84 0.81 93 1012.2
20260903030116 57 65 0.0 0.0 0.06 0.83 0.80 93 1011.8
20260903024555 57 65 0.0 0.0 0.11 0.92 0.80 93 1011.9
20260903023054 57 346 0.0 0.0 0.15 0.91 0.79 93 1012.0
20260903021554 57 338 0.0 2.0 0.15 0.90 0.78 93 1011.9
20260903020104 57 286 1.0 3.0 0.13 0.86 0.74 93 1012.1
20260903014552 57 306 0.0 2.0 0.13 0.81 0.69 92 1011.8
20260903013051 57 323 0.0 2.0 0.13 0.76 0.64 92 1011.7
20260903011551 57 350 0.0 2.0 0.16 0.75 0.63 92 1011.8
20260903010051 57 38 0.0 2.0 0.16 0.73 0.61 92 1011.7
20260903004550 57 320 0.0 3.0 0.13 0.68 0.56 91 1011.5
20260903003049 58 5 0.0 3.0 0.10 0.63 0.51 89 1011.5
20260903001603 58 340 1.0 4.0 0.10 0.59 0.47 91 1011.6
20260903000054 58 360 0.0 2.0 0.11 0.56 0.45 91 1011.6
20260902234547 58 33 2.0 4.0 0.12 0.55 0.43 89 1011.3
20260902233054 58 330 3.0 4.0 0.12 0.53 0.41 89 1011.5
20260902231551 58 346 1.0 4.0 0.11 0.49 0.37 89 1011.6
20260902230048 58 360 3.0 5.0 0.10 0.46 0.34 90 1011.4
20260902224544 58 31 4.0 6.0 0.08 0.43 0.31 91 1011.4
20260902223046 58 360 1.0 5.0 0.07 0.41 0.28 90 1011.3
20260902221605 58 5 2.0 4.0 0.05 0.38 0.26 88 1011.2
20260902220042 59 24 1.0 3.0 0.05 0.36 0.24 90 1011.4
20260902214540 58 19 1.0 4.0 0.06 0.35 0.23 90 1011.1
20260902213040 58 57 0.0 3.0 0.06 0.34 0.22 91 1011.2
20260902211538 58 59 2.0 5.0 0.05 0.33 0.21 90 1011.1
20260902210038 58 70 2.0 5.0 0.05 0.31 0.19 89 1011.1
20260902204551 59 61 2.0 5.0 0.04 0.28 0.17 88 1011.1
20260902203036 59 30 0.0 2.0 0.03 0.28 0.16 88 1011.2
20260902201541 59 355 0.0 3.0 0.04 0.28 0.16 87 1011.2
20260902200038 59 5 0.0 2.0 0.03 0.26 0.14 88 1011.2